Location: Banios
(43.0451°N, 0.2335°E)
Time: 14:26:19
(UTC+00:00)

Vanguard 1 - All Passes

Search period start: 08 May 2021 00:00
Search period end: 18 May 2021 00:00
Orbit: 649 x 3834 km, 34.2° (Epoch: 04 May)

Date Brightness Start Highest point End Pass type
(mag) Time Alt. Az. Time Alt. Az. Time Alt. Az.
08 May - 08:56:54 10° SSW 09:01:42 28° SSE 09:09:00 10° E daylight
08 May - 11:14:33 10° WSW 11:21:38 51° S 11:34:34 10° ESE daylight
08 May - 13:33:49 10° W 13:43:26 46° SSW 14:00:13 10° SE daylight
08 May - 15:55:30 10° W 16:06:31 26° SSW 16:22:02 10° SSE daylight
09 May - 09:17:06 10° SW 09:22:14 34° SSE 09:30:26 10° E daylight
09 May - 11:35:14 10° WSW 11:42:31 51° S 11:55:50 10° ESE daylight
09 May - 13:54:49 10° W 14:04:29 40° SSW 14:20:47 10° SE daylight
09 May - 16:17:44 10° WSW 16:27:33 20° SW 16:40:28 10° S daylight
10 May - 07:22:10 10° SSE 07:24:01 12° SE 07:26:06 10° ESE daylight
10 May - 09:37:29 10° SW 09:42:52 39° SSE 09:51:45 10° E daylight
10 May - 11:55:58 10° WSW 12:03:26 48° S 12:16:58 10° ESE daylight
10 May - 14:15:57 10° W 14:25:33 34° SSW 14:40:58 10° SSE daylight
10 May - 16:41:14 10° WSW 16:48:36 14° SW 16:57:25 10° SSW daylight
11 May - 07:41:10 10° S 07:44:24 17° SSE 07:48:27 10° ESE daylight
11 May - 09:58:00 10° WSW 10:03:35 43° S 10:13:01 10° ESE daylight
11 May - 12:16:47 10° W 12:24:23 44° S 12:37:57 10° SE daylight
11 May - 14:37:20 10° WSW 14:46:37 28° SSW 15:00:41 10° SSE daylight
12 May - 08:01:00 10° SSW 08:04:52 23° SSE 08:10:03 10° ESE daylight
12 May - 10:18:37 10° WSW 10:24:22 45° S 10:34:13 10° ESE daylight
12 May - 12:37:40 10° W 12:45:22 39° SSW 12:58:41 10° SE daylight
12 May - 14:59:09 10° WSW 15:07:40 22° SSW 15:19:43 10° SSE daylight
13 May - 08:21:12 10° SW 08:25:26 29° SSE 08:31:23 10° ESE daylight
13 May - 10:39:18 10° WSW 10:45:11 44° S 10:55:21 10° ESE daylight
13 May - 12:58:40 10° WSW 13:06:21 34° SSW 13:19:08 10° SE daylight
13 May - 15:21:48 10° WSW 15:28:45 16° SSW 15:37:41 10° S daylight
14 May - 08:41:36 10° SW 08:46:03 34° SSE 08:52:36 10° ESE daylight
14 May - 11:00:02 10° WSW 11:06:03 41° S 11:16:21 10° ESE daylight
14 May - 13:19:52 10° WSW 13:27:23 28° SSW 13:39:10 10° SSE daylight
14 May - 15:47:40 10° SW 15:49:51 10° SW 15:52:11 10° SSW daylight
15 May - 06:45:06 10° S 06:47:39 15° SSE 06:50:28 10° ESE daylight
15 May - 09:02:07 10° WSW 09:06:45 37° S 09:13:44 10° ESE daylight
15 May - 11:20:51 10° WSW 11:26:57 37° S 11:37:11 10° SE daylight
15 May - 13:41:25 10° WSW 13:48:25 22° SSW 13:58:39 10° SSE daylight
16 May - 07:04:55 10° SSW 07:08:12 20° SSE 07:12:02 10° ESE daylight
16 May - 09:22:45 10° WSW 09:27:30 38° S 09:34:48 10° ESE daylight
16 May - 11:41:47 10° WSW 11:47:52 32° SSW 11:57:46 10° SE daylight
16 May - 14:03:37 10° WSW 14:09:29 16° SSW 14:17:15 10° S daylight
17 May - 07:25:07 10° SW 07:28:48 25° SSE 07:33:17 10° ESE daylight
17 May - 09:43:27 10° WSW 09:48:17 37° S 09:55:46 10° ESE daylight
17 May - 12:02:53 10° WSW 12:08:49 26° SSW 12:18:01 10° SSE daylight
17 May - 14:27:53 10° SW 14:30:33 11° SSW 14:33:32 10° SSW daylight
